Regional Weather Roundup
Issued by NWS Cleveland, OH

Home | Current Version | Previous Version | Graphics & Text | Print | Product List | Glossary On
Versions: 1 2 3 4 5 6 7 8 9 10 11 12 13 14 15 16 17 18 19 20 21 22 23 24 25 26 27 28 29 30 31 32 33 34 35 36 37 38 39 40 41 42 43 44 45 46 47 48 49 50
000
ASUS41 KCLE 260610
RWRCLE
OHIO REGIONAL WEATHER ROUNDUP
NATIONAL WEATHER SERVICE WILMINGTON, OH
200 AM EDT SUN MAR 26 2017

NOTE: "FAIR" INDICATES FEW OR NO CLOUDS BELOW 12,000 FEET WITH NO
SIGNIFICANT WEATHER AND/OR OBSTRUCTIONS TO VISIBILITY.

OHZ001>008-015>018-024>027-034-035-043-044-260700-
   NORTHWEST OHIO

CITY           SKY/WX    TMP DP  RH WIND       PRES   REMARKS
DEFIANCE       CLOUDY    39  36  89 VRB5      30.09R
FINDLAY        FAIR      43  37  79 E9        30.02F
TOLEDO EXPRESS CLOUDY    38  36  92 E14       30.07F
TOLEDO EXEC    CLOUDY    39  37  92 NE9       30.09F
LIMA           FAIR      47  44  90 E9        30.01F
$$

OHZ009>014-019>023-028>033-038-089-260700-
   NORTHEAST OHIO

CITY           SKY/WX    TMP DP  RH WIND       PRES   REMARKS
CLE-HOPKINS    MOCLDY    43  36  76 N5        30.10F
CLE-LAKEFRONT  FAIR      40  37  89 NE10      30.08F
CUY CO. ARPT   NOT AVBL
LORAIN-ELYRIA  FAIR      41  36  82 E5        30.07F
ASHTABULA      FAIR      39  37  92 CALM      30.13F
AKRON-CANTON   MOCLDY    57  48  72 E8        30.08F
WOOSTER        FAIR      55  49  80 E7        30.07F
MANSFIELD      FAIR      58  51  78 E10       30.05F
YOUNGSTOWN     CLOUDY    51  46  83 E6        30.12F
$$

OHZ042-051>053-060>062-070>072-077>081-260700-
  SOUTHWEST OHIO

CITY           SKY/WX    TMP DP  RH WIND       PRES   REMARKS
CINC-COVINGTON LGT RAIN  60  56  86 S5        30.00F
CINC-LUNKEN    LGT RAIN  60  54  80 SE5       30.00F
HAMILTON       CLOUDY    62  56  80 CALM      30.01F
DAYTON         CLOUDY    63  48  58 S8        30.01S
WRIGHT-PAT AFB CLOUDY    65  48  54 SE10      29.99F
DAYTON GENERAL CLOUDY    64  49  57 SW7       30.01R
WILMINGTON     CLOUDY    60  49  66 SE9       30.00F
$$

OHZ036-037-039>041-045>050-054>059-063>069-073>076-082>088-260700-
  CENTRAL AND SOUTHEAST OHIO

CITY           SKY/WX    TMP DP  RH WIND       PRES   REMARKS
COLUMBUS       MOCLDY    64  50  60 SE8       30.01F
OSU AIRPORT    FAIR      63  50  62 SE8       30.01F
BOLTON FIELD   FAIR      59  50  71 CALM      30.02F
RICKENBACK AFB FAIR      56  49  76 E5        30.01F
NEWARK         FAIR      53  48  83 CALM      30.02F
MARION         FAIR      56  50  80 SE6       30.03F
LANCASTER      FAIR      54  49  83 CALM      30.03F
ZANESVILLE     FAIR      60  49  66 CALM      30.04F
NEW PHILLY     FAIR      55  51  86 CALM      30.07F
$$



USA.gov is the U.S. government's official web portal to all federal, state and local government web resources and services.